EDT,Max TemperatureF,Mean TemperatureF,Min TemperatureF,Max Dew PointF,MeanDew PointF,Min DewpointF,Max Humidity, Mean Humidity, Min Humidity, Max Sea Level PressureIn, Mean Sea Level PressureIn, Min Sea Level PressureIn, Max VisibilityMiles, Mean VisibilityMiles, Min VisibilityMiles, Max Wind SpeedMPH, Mean Wind SpeedMPH, Max Gust SpeedMPH,PrecipitationIn, CloudCover, Events, WindDirDegrees
2011-3-1,35,26,12,20,12,5,92,56,30,30.26,30.15,29.86,10,10,10,17,10,28,0.00,0,,316
2011-3-2,43,26,10,30,15,-2,100,67,42,30.35,30.08,29.88,10,8,1,25,8,41,0.00,4,Snow,273
2011-3-3,26,16,5,-1,-5,-9,76,45,25,30.71,30.60,30.38,10,10,8,13,10,23,0.00,0,,331
2011-3-4,34,18,1,23,8,-2,88,64,33,30.78,30.69,30.56,10,10,10,16,4,24,0.00,2,,185
2011-3-5,48,38,28,43,35,25,100,86,68,30.57,30.36,30.17,10,8,2,21,6,36,0.02,7,Rain,182
2011-3-6,48,40,33,47,43,34,100,98,90,30.15,29.94,29.77,10,3,0,17,10,25,2.08,8,Fog-Rain,196
2011-3-7,35,30,24,36,28,16,100,88,64,30.30,29.72,29.51,10,4,1,26,10,43,1.39,7,Rain-Snow,326
2011-3-8,37,27,17,22,17,11,96,70,37,30.65,30.53,30.34,10,10,10,10,5,,0.00,0,,320
2011-3-9,34,26,17,26,22,15,92,76,64,30.72,30.65,30.58,10,10,7,14,5,21,0.00,5,,106
2011-3-10,39,36,32,36,33,26,93,88,79,30.56,30.31,30.06,10,9,6,14,7,18,0.05,8,Rain,99
2011-3-11,48,40,33,47,40,31,100,97,73,30.05,29.80,29.73,10,4,0,15,5,26,0.60,7,Fog-Rain,183
2011-3-12,44,38,32,33,30,27,96,77,55,29.83,29.77,29.72,10,9,3,16,7,30,0.01,7,Rain-Snow,222
2011-3-13,42,38,33,34,30,28,100,77,60,30.15,29.95,29.81,10,8,2,17,5,22,0.00,8,Rain,291
2011-3-14,39,33,25,29,27,22,92,75,50,30.44,30.28,30.15,10,10,8,8,4,,0.00,7,Snow,349
2011-3-15,42,30,19,28,24,17,96,81,57,30.51,30.46,30.39,10,9,6,15,3,21,0.00,1,,181
2011-3-16,41,36,32,38,33,27,100,94,80,30.39,30.12,29.99,10,5,0,8,3,,0.40,8,Fog-Rain-Snow,272
2011-3-17,60,44,28,36,32,27,100,79,32,30.17,30.06,29.96,10,6,0,10,1,,0.01,2,Fog,264
2011-3-18,64,48,33,44,31,22,93,54,21,29.93,29.81,29.71,10,10,10,22,7,38,0.00,1,,246
2011-3-19,44,36,28,31,22,12,79,55,32,30.49,30.20,29.91,10,10,10,17,6,23,0.00,3,Rain,342
2011-3-20,45,32,19,21,13,5,81,51,20,30.65,30.57,30.50,10,10,10,7,1,,0.00,0,,66
2011-3-21,34,31,28,32,30,21,100,89,64,30.48,30.06,29.82,10,3,0,15,4,21,0.18,8,Fog-Rain-Snow,149
2011-3-22,42,33,27,34,30,26,100,87,60,29.99,29.89,29.80,10,8,1,17,3,25,0.01,7,,328
2011-3-23,35,30,25,25,18,11,88,63,40,29.96,29.84,29.69,10,10,9,9,3,,0.00,4,,350
2011-3-24,42,34,26,22,16,10,81,52,33,29.87,29.71,29.63,10,10,8,16,7,20,0.00,5,,343
2011-3-25,37,28,18,19,12,4,92,53,27,29.93,29.87,29.82,10,10,10,16,6,25,0.00,2,,296
2011-3-26,37,26,16,9,6,5,74,42,28,29.94,29.91,29.87,10,10,10,21,8,30,0.00,1,,308
2011-3-27,39,30,21,10,4,-2,63,37,18,29.93,29.86,29.77,10,10,10,18,9,28,0.00,0,,294
2011-3-28,44,33,23,15,6,0,46,34,23,29.93,29.85,29.79,10,10,10,17,11,29,0.00,2,,293
2011-3-29,43,31,21,19,15,11,72,47,35,30.10,30.00,29.94,10,10,10,20,8,28,0.00,2,,318
2011-3-30,53,37,21,23,19,11,89,53,19,30.17,30.06,29.96,10,10,10,12,2,17,0.00,0,,313
2011-3-31,46,39,32,32,29,22,100,80,39,29.97,29.85,29.75,10,6,1,13,2,18,0.15,8,Snow,67